Location: Rounton
(54.4000°N, 1.3500°W)
Time: 23:19:27
(UTC+00:00)

Vanguard 1 - Pass Details

Date: 29 November 2021
Orbit: 652 x 3830 km, 34.2° (Epoch: 17 January)

Event Time Altitude Azimuth Distance (km) Brightness Sun altitude
Rises 05:56:26 0° 267° (W) 7,686 - -17.0°
Reaches altitude 10° 06:03:20 10° 258° (WSW) 6,283 - -16.0°
Exits shadow 06:03:35 10° 257° (WSW) 6,230 13.6 -16.0°
Maximum altitude 06:16:35 25° 213° (SSW) 4,023 13.0 -14.1°
Drops below altitude 10° 06:25:37 10° 163° (SSE) 4,163 13.8 -12.9°
Sets 06:29:02 0° 150° (SSE) 4,735 14.4 -12.4°
